Location: Bamobli
(6.6379°N, 10.9396°W)
Time: 00:37:37
(UTC+00:00)

Envisat - Pass Details

Date: 05 March 2021
Orbit: 764 x 766 km, 98.1° (Epoch: 11 April)

Event Time Altitude Azimuth Distance (km) Brightness Sun altitude
Rises 05:35:09 0° 24° (NNE) 3,216 6.5 -20.5°
Reaches altitude 10° 05:37:34 10° 32° (NNE) 2,291 5.8 -19.9°
Maximum altitude 05:42:18 41° 101° (ESE) 1,097 4.3 -18.7°
Drops below altitude 10° 05:47:02 10° 171° (S) 2,295 5.6 -17.6°
Sets 05:49:27 0° 178° (S) 3,221 6.3 -17.0°
